Regional Weather Roundup
Issued by NWS

Home | Current Version | Previous Version | Text Only | Print | Product List | Glossary Off
Versions: 1 2 3 4 5 6 7 8 9 10 11 12 13 14 15 16 17 18 19 20 21 22 23 24 25 26 27 28 29 30 31 32 33 34 35 36 37 38 39 40 41 42 43 44 45 46 47 48 49 50

831
ASUS43 KMKX 290221
RWRWI

WISCONSIN REGIONAL WEATHER ROUNDUP
NATIONAL WEATHER SERVICE MILWAUKEE/SULLIVAN WI
900 PM CDT THU JUL 28 2016

NOTE: "FAIR" INDICATES FEW OR NO CLOUDS BELOW 12,000 FEET WITH NO
SIGNIFICANT WEATHER AND/OR OBSTRUCTIONS TO VISIBILITY.

WIZ001-002-006>008-014>016-023>028-290300-
NORTHWEST WISCONSIN

CITY           SKY/WX    TMP DP  RH WIND       PRES   REMARKS
SUPERIOR ARPT  CLEAR     60  58  94 E5        30.09R
ASHLAND        CLOUDY    59  53  80 N5        30.09S
HAYWARD        PTCLDY    62  53  72 N5        30.08R
SIREN          PTCLDY    64  54  68 E3        30.07
CUMBERLAND     CLOUDY    64  54  68 N9        30.07R
RICE LAKE      CLOUDY    67  56  69 N13       30.06S
CHETEK         CLOUDY    69  61  74 N8        30.04S
LADYSMITH      CLOUDY    68  59  72 N8        30.07R
EAU CLAIRE     CLOUDY    65  62  90 CALM      30.03R
MENOMONIE      CLOUDY    66  62  87 SE3       30.05R
NEW RICHMOND   MOCLDY    68  59  73 NE7       30.04S
OSCEOLA        PTCLDY    67  57  70 N7        30.07R
$$

WIZ003>005-009-010-017-018-290300-
NORTH CENTRAL WISCONSIN

CITY           SKY/WX    TMP DP  RH WIND       PRES   REMARKS
MANITOWISH WTR PTCLDY    60  55  83 NE3       30.09R
ARBOR VITAE    CLEAR     63  55  74 NE3       30.08R
WOODRUFF       CLEAR     63  55  74 NE3       30.08R
RHINELANDER    CLEAR     63  53  70 NE5       30.07R
EAGLE RIVER    PTCLDY    59  49  69 NE6       30.08R
LAND O LAKES   PTCLDY    61  52  72 NE3       30.10R
PHILLIPS       CLEAR     63  56  79 NE8       30.07R
TOMAHAWK       CLOUDY    64  53  68 NE3       30.07R
MEDFORD        CLOUDY    65  65 100 N3        30.03S
MERRILL        CLOUDY    66  64  91 NE5       30.04S
$$

WIZ029-030-035-036-043>047-290300-
CENTRAL WISCONSIN

CITY           SKY/WX    TMP DP  RH WIND       PRES   REMARKS
WAUSAU         CLOUDY    67  65  93 CALM      30.01R
MOSINEE        CLOUDY    66  63  88 NE5       30.04R
MARSHFIELD     CLOUDY    65  60  84 NE6       30.01S
STEVENS POINT  DRIZZLE   62  61  96 N3        30.02R
WAUPACA        MOCLDY    67  64  87 CALM      30.00S
WAUTOMA        CLOUDY    66  62  87 NE5         N/A
WISC RAPIDS    CLOUDY    66  57  72 E8        30.02R
CAMP DOUGLAS   NOT AVBL
$$

WIZ011>013-019>022-031-037>040-048>050-290300-
NORTHEAST WISCONSIN

CITY           SKY/WX    TMP DP  RH WIND       PRES   REMARKS
ANTIGO         CLOUDY    65  59  82 CALM      30.05R
SHAWANO        CLOUDY    70  64  83 N6        30.01R
OCONTO         CLOUDY   N/A N/A N/A N3        30.00R
STURGEON BAY   CLOUDY    68  59  73 N10       30.01R
GREEN BAY      CLOUDY    66  65  96 NE7       29.99R
MANITOWOC      RAIN      65  60  84 NE7       29.98R
APPLETON       MOCLDY    68  55  64 NE10      29.97S
CLINTONVILLE   CLOUDY    64  61  88 CALM      30.01R
OSHKOSH        CLOUDY    69  57  65 NE8       29.98R
$$

WIZ032>034-041-042-053>061-290300-
SOUTHWEST WISCONSIN

CITY           SKY/WX    TMP DP  RH WIND       PRES   REMARKS
LA CROSSE      CLOUDY    65  63  93 N9        29.98R
SPARTA         CLOUDY    62  61  97 CALM      30.00R
VIROQUA        CLOUDY    65  65 100 N7        29.98R
BOSCOBEL       CLOUDY    72  67  84 VRB5      29.94R
PRAIRIE DU CHI HVY RAIN  68  66  92 NW8       29.94R
PLATTEVILLE    CLOUDY    70  69  99 NE6       29.94R
$$

WIZ056-057-062-063-064-067-068-290300-
SOUTH CENTRAL WISCONSIN

CITY           SKY/WX    TMP DP  RH WIND       PRES   REMARKS
REEDSBURG      CLOUDY    68  65  89 NE9       29.96S
BARABOO/DELLS  CLOUDY    67  62  83 NE8       29.97R
LONE ROCK      CLOUDY    71  64  78 NE12      29.94S
MINERAL POINT  CLOUDY    70  70 100 NE7       29.94S
MADISON        CLOUDY    70  63  78 E13       29.95R
MIDDLETON      CLOUDY    70  64  81 NE6       29.96R
WATERTOWN      CLOUDY    67  63  85 NE7       29.96R
MONROE         CLOUDY    70  64  83 NE8       29.93R
JANESVILLE     MOCLDY    70  66  88 E9        29.93R
$$

WIZ051-052-058>065-066-070>072-290300-
SOUTHEAST WISCONSIN

CITY           SKY/WX    TMP DP  RH WIND       PRES   REMARKS
MILWAUKEE      CLOUDY    67  62  84 N10       29.94R
WAUKESHA       MOCLDY    66  61  82 NE9       29.96F
MILWAUKEE/TIMM MOCLDY    66  61  82 NE9       29.96S
RACINE         MOCLDY    67  64  90 N9        29.95R
BURLINGTON     PTCLDY    67  65  93 NE6       29.94S
KENOSHA        PTCLDY    68  65  90 NE6       29.94R
FOND DU LAC    CLOUDY    69  57  65 NE9       29.98R
SHEBOYGAN      CLOUDY    66  57  72 N10       29.97R
WEST BEND      CLOUDY    64  57  77 NE6       29.97R
JUNEAU         CLOUDY    67  59  75 NE9       29.97S
$$

LSZ147-162-290300-
LAKE SUPERIOR

STATION/POSITION TIME  TEMP    WIND        PRES    WAVE
                       AIR SEA DIR/SP/G            HT/PER
                 (UTC) (F)     (DEG/KT/KT) (MB)    (FT/S)
W MID LAKE BUOY  0150   61 61  340/  4/  6 1018.5R   1/ 4
DEVILS ISLAND    0200   63      70/  5/  6 1019.0R
PORT WING        0100   63      20/  2/  3 1019.0
SAXON HARBOR     0100   69     160/  2/  5 1017.9S
$$

LMZ867-665-643>646-290300-
LAKE MICHIGAN

STATION/POSITION TIME  TEMP    WIND        PRES    WAVE
                       AIR SEA DIR/SP/G            HT/PER
                 (UTC) (F)     (DEG/KT/KT) (MB)    (FT/S)
CHAMBERS ISLAND  0100   71     360/ 20/ 23 1015.6S
N MID LAKE BUOY  0150   69 70  360/ 19/ 23 1014.9R   2/ 3
NORTHPORT PIER   0100   71      10/ 15/ 19 1015.9S
SISTER BAY       0106   70      20/ 11/ 15   N/A
ALGOMA LAKESHORE 0143           20/  6/  8   N/A
KEWAUNEE LAKESHO 0100   66                   N/A
SHEBOYGAN LAKESH 0200   62     360/ 15/ 16 1014.8S
PORT WASHINGTON  0140   68     360/  4/ 10 1014.9S
ATWATER BUOY     0200   64 63   10/ 16/ 19 1015.4F
MILWAUKEE LAKESH 0110   65     360/ 14/ 17   N/A
S MID LAKE BUOY  0150   75 75  100/  8/ 10 1012.6R   2/ 6
KENOSHA   LAKESH 0200   69      10/ 12/ 14 1013.2S
$$

TC  - TEMPERATURE IN CELSIUS
VSB - VISIBILITY IN STATUTE MILES
WCI - WIND CHILL INDEX
HX  - HEAT INDEX





USA.gov is the U.S. government's official web portal to all federal, state and local government web resources and services.